KF0ZH Weather Reports


Display with metric or nautical units.
time (UTC)temp
F
wind
direction
speed
MPH
gust
MPH
rain 1hr
in
rain 24hr
in
rain mn
in
humidity
%
barometer
mb
20230129163207 0 230 0.0 0.0 0.00 0.00 0.00 85 1031.7
20230129162705 0 230 0.0 0.0 0.00 0.00 0.00 84 1031.8
20230129162309 0 230 0.0 0.0 0.00 0.00 0.00 85 1031.8
20230129162205 0 230 0.0 0.0 0.00 0.00 0.00 85 1031.8
20230129161706 0 248 0.0 4.0 0.00 0.00 0.00 85 1031.7
20230129161247 0 300 0.0 0.0 0.00 0.00 0.00 85 1031.8
20230129161205 0 300 0.0 0.0 0.00 0.00 0.00 85 1031.8
20230129160705 0 300 0.0 0.0 0.00 0.00 0.00 85 1031.7
20230129160207 0 226 0.0 0.0 0.00 0.00 0.00 85 1031.7
20230129155236 0 255 0.0 0.0 0.00 0.00 0.00 86 1031.5
20230129155205 0 255 0.0 0.0 0.00 0.00 0.00 86 1031.5
20230129154705 0 255 0.0 0.0 0.00 0.00 0.00 86 1031.4
20230129153705 0 330 0.0 0.0 0.00 0.00 0.00 87 1031.6
20230129153205 -1 330 0.0 0.0 0.00 0.00 0.00 87 1031.6
20230129152816 -1 327 6.0 6.0 0.00 0.00 0.00 87 1031.5
20230129152705 -1 327 6.0 6.0 0.00 0.00 0.00 87 1031.5
20230129152207 -1 312 0.0 6.0 0.00 0.00 0.00 87 1031.4
20230129151705 -1 295 0.0 0.0 0.00 0.00 0.00 87 1031.3
20230129151427 -1 317 0.0 0.0 0.00 0.00 0.00 87 1031.1
20230129151354 -1 317 0.0 0.0 0.00 0.00 0.00 87 1031.1
20230129151205 -1 317 0.0 0.0 0.00 0.00 0.00 87 1031.1
20230129150748 -1 317 0.0 0.0 0.00 0.00 0.00 88 1031.2
20230129150705 -1 317 0.0 0.0 0.00 0.00 0.00 88 1031.2
20230129150305 -1 317 0.0 0.0 0.00 0.00 0.00 87 1031.0
20230129150205 -1 317 0.0 0.0 0.00 0.00 0.00 87 1031.0
20230129145705 -1 241 0.0 0.0 0.00 0.00 0.00 88 1030.9
20230129145205 -2 244 0.0 4.0 0.00 0.00 0.00 88 1030.8
20230129144708 -2 317 0.0 0.0 0.00 0.00 0.00 87 1030.6
20230129144205 -1 317 0.0 0.0 0.00 0.00 0.00 88 1030.5
20230129143205 -2 317 0.0 0.0 0.00 0.00 0.00 89 1030.3
20230129142205 -2 317 0.0 0.0 0.00 0.00 0.00 89 1030.4
20230129141705 -2 317 0.0 0.0 0.00 0.00 0.00 89 1030.4
20230129141205 -2 317 0.0 0.0 0.00 0.00 0.00 89 1030.2
20230129140705 -3 317 0.0 0.0 0.00 0.00 0.00 89 1030.1
20230129140205 -3 317 0.0 0.0 0.00 0.00 0.00 89 1030.1
20230129135705 -3 317 0.0 0.0 0.00 0.00 0.00 89 1029.9
20230129135205 -3 317 0.0 0.0 0.00 0.00 0.00 89 1030.0
20230129134709 -3 317 0.0 0.0 0.00 0.00 0.00 89 1030.0
20230129134205 -3 317 0.0 0.0 0.00 0.00 0.00 89 1029.9
20230129133813 -3 317 0.0 0.0 0.00 0.00 0.00 89 1029.9
20230129133705 -3 317 0.0 0.0 0.00 0.00 0.00 89 1029.9
20230129133205 -2 317 0.0 0.0 0.00 0.00 0.00 89 1029.5
20230129132737 -2 317 0.0 0.0 0.00 0.00 0.00 89 1029.3
20230129132705 -2 317 0.0 0.0 0.00 0.00 0.00 89 1029.3
20230129132236 -2 317 0.0 0.0 0.00 0.00 0.00 88 1029.5
20230129132205 -2 317 0.0 0.0 0.00 0.00 0.00 88 1029.5
20230129131736 -2 317 0.0 0.0 0.00 0.00 0.00 88 1029.6
20230129131705 -2 317 0.0 0.0 0.00 0.00 0.00 88 1029.6
20230129131205 -2 317 0.0 0.0 0.00 0.00 0.00 88 1029.6
20230129130705 -2 317 0.0 0.0 0.00 0.00 0.00 87 1029.7
20230129130302 -2 317 0.0 0.0 0.00 0.00 0.00 87 1029.7
20230129130205 -2 317 0.0 0.0 0.00 0.00 0.00 87 1029.7
20230129125706 -2 317 0.0 0.0 0.00 0.00 0.00 87 1029.7
20230129125205 -2 319 0.0 0.0 0.00 0.00 0.00 87 1029.5
20230129124748 -1 319 0.0 0.0 0.00 0.00 0.00 87 1029.5
20230129124706 -1 319 0.0 0.0 0.00 0.00 0.00 87 1029.5
20230129124245 -1 319 0.0 0.0 0.00 0.00 0.00 87 1029.6
20230129124206 -1 319 0.0 0.0 0.00 0.00 0.00 87 1029.6
20230129123737 -1 319 0.0 0.0 0.00 0.00 0.00 86 1029.8
20230129123705 -1 319 0.0 0.0 0.00 0.00 0.00 86 1029.8
20230129123253 -1 319 0.0 0.0 0.00 0.00 0.00 87 1029.8
20230129123206 -1 319 0.0 0.0 0.00 0.00 0.00 87 1029.8
20230129122749 -1 319 0.0 0.0 0.00 0.00 0.00 86 1030.0
20230129122705 -1 319 0.0 0.0 0.00 0.00 0.00 86 1030.0
20230129122346 -1 319 0.0 4.0 0.00 0.00 0.00 86 1030.2
20230129122205 -1 319 0.0 4.0 0.00 0.00 0.00 86 1030.2
20230129121736 -1 303 0.0 0.0 0.00 0.00 0.00 86 1030.4
20230129121705 -1 303 0.0 0.0 0.00 0.00 0.00 86 1030.4
20230129121207 -1 303 0.0 0.0 0.00 0.00 0.00 86 1030.5
20230129120801 -1 303 0.0 0.0 0.00 0.00 0.00 86 1030.4
20230129120705 -1 303 0.0 0.0 0.00 0.00 0.00 86 1030.4
20230129120301 -1 303 0.0 0.0 0.00 0.00 0.00 86 1030.4
20230129120205 -1 303 0.0 0.0 0.00 0.00 0.00 86 1030.4
20230129115205 0 303 0.0 0.0 0.00 0.00 0.00 85 1030.4
20230129114747 0 334 0.0 6.0 0.00 0.00 0.00 85 1030.4
20230129114705 0 334 0.0 6.0 0.00 0.00 0.00 85 1030.4
20230129114205 0 307 0.0 9.0 0.00 0.00 0.00 85 1030.5
20230129113740 0 307 7.0 10.0 0.00 0.00 0.00 85 1030.4
20230129113705 0 307 7.0 10.0 0.00 0.00 0.00 85 1030.4
20230129113237 0 303 0.0 7.0 0.00 0.00 0.00 85 1030.3
20230129113206 0 303 0.0 7.0 0.00 0.00 0.00 85 1030.3
20230129112742 0 344 0.0 6.0 0.00 0.00 0.00 84 1030.2
20230129112705 0 344 0.0 6.0 0.00 0.00 0.00 84 1030.2
20230129112205 0 343 4.0 6.0 0.00 0.00 0.00 84 1030.1
20230129111736 0 302 0.0 0.0 0.00 0.00 0.00 84 1030.1
20230129111705 0 302 0.0 0.0 0.00 0.00 0.00 84 1030.1
20230129111207 0 285 0.0 0.0 0.00 0.00 0.00 84 1030.0
20230129110901 0 302 0.0 0.0 0.00 0.00 0.00 83 1030.1
20230129110705 0 302 0.0 0.0 0.00 0.00 0.00 83 1030.1
20230129110206 0 302 0.0 0.0 0.00 0.00 0.00 83 1030.2
20230129105747 0 307 8.0 8.0 0.00 0.00 0.00 83 1030.3
20230129105709 0 307 8.0 8.0 0.00 0.00 0.00 83 1030.3
20230129105315 0 333 0.0 6.0 0.00 0.00 0.00 83 1030.3
20230129105205 0 333 0.0 6.0 0.00 0.00 0.00 83 1030.3
20230129104705 0 322 0.0 0.0 0.00 0.00 0.00 83 1030.3
20230129104358 0 322 0.0 7.0 0.00 0.00 0.00 83 1030.4
20230129104205 0 322 0.0 7.0 0.00 0.00 0.00 83 1030.4
20230129103813 0 326 0.0 0.0 0.00 0.00 0.00 83 1030.4
20230129103705 0 326 0.0 0.0 0.00 0.00 0.00 83 1030.4
20230129103244 0 351 0.0 8.0 0.00 0.00 0.00 82 1030.4
20230129103231 0 351 0.0 8.0 0.00 0.00 0.00
20230129103205 0 351 0.0 8.0 0.00 0.00 0.00 82 1030.4
20230129102706 0 334 0.0 7.0 0.00 0.00 0.00 83 1030.3
20230129102207 0 305 0.0 0.0 0.00 0.00 0.00 84 1030.2
20230129101705 0 340 4.0 12.0 0.00 0.00 0.00 83 1030.1
20230129101205 0 340 0.0 3.0 0.00 0.00 0.00 84 1030.2
20230129100750 0 350 0.0 0.0 0.00 0.00 0.00 84 1030.3
20230129100707 0 350 0.0 0.0 0.00 0.00 0.00 84 1030.3
20230129100205 0 312 0.0 0.0 0.00 0.00 0.00 84 1030.4
20230129095705 0 312 0.0 0.0 0.00 0.00 0.00 84 1030.5
20230129095209 0 312 0.0 10.0 0.00 0.00 0.00 84 1030.7
20230129094748 0 324 0.0 8.0 0.00 0.00 0.00 83 1030.5
20230129094705 0 324 0.0 8.0 0.00 0.00 0.00 83 1030.5
20230129094424 0 348 0.0 5.0 0.00 0.00 0.00 84 1030.3
20230129094422 0 306 0.0 6.0 0.00 0.00 0.00
20230129094350 0 307 6.0 11.0 0.00 0.00 0.00 84 1030.6
20230129094341 0 306 0.0 6.0 0.00 0.00 0.00 85 1030.4
20230129094332 0 348 0.0 5.0 0.00 0.00 0.00 84 1030.3
20230129094205 0 307 6.0 11.0 0.00 0.00 0.00 84 1030.6
20230129093705 0 306 0.0 6.0 0.00 0.00 0.00 85 1030.4
20230129093205 0 348 0.0 5.0 0.00 0.00 0.00 84 1030.3
20230129092800 0 305 0.0 8.0 0.00 0.00 0.00 84 1030.3
20230129092705 0 305 0.0 8.0 0.00 0.00 0.00 84 1030.3
20230129092205 0 322 0.0 0.0 0.00 0.00 0.00 84 1030.3
20230129091707 0 293 6.0 8.0 0.00 0.00 0.00 84 1030.2
20230129091205 0 338 4.0 8.0 0.00 0.00 0.00 84 1030.2
20230129090242 0 298 0.0 11.0 0.00 0.00 0.00 84 1030.3
20230129090205 0 298 0.0 11.0 0.00 0.00 0.00 84 1030.3
20230129085205 1 315 0.0 0.0 0.00 0.00 0.00 84 1030.2
20230129084705 0 313 0.0 0.0 0.00 0.00 0.00 83 1030.3
20230129084205 1 313 0.0 6.0 0.00 0.00 0.00 83 1030.2
20230129083713 0 317 0.0 0.0 0.00 0.00 0.00 83 1030.1
20230129083705 0 317 0.0 0.0 0.00 0.00 0.00 83 1030.1
20230129083207 1 326 0.0 0.0 0.00 0.00 0.00 83 1030.1
20230129082705 1 326 0.0 0.0 0.00 0.00 0.00 83 1030.0
20230129082206 1 324 0.0 4.0 0.00 0.00 0.00 83 1030.0
20230129081846 1 306 0.0 0.0 0.00 0.00 0.00 83 1029.9
20230129081814 1 306 0.0 0.0 0.00 0.00 0.00 83 1029.9
20230129081705 1 306 0.0 0.0 0.00 0.00 0.00 83 1029.9
20230129081205 1 306 5.0 5.0 0.00 0.00 0.00 83 1029.9
20230129080705 1 288 0.0 0.0 0.00 0.00 0.00 83 1029.8
20230129080205 1 288 0.0 8.0 0.00 0.00 0.00 83 1029.6
20230129075705 1 350 0.0 7.0 0.00 0.00 0.00 83 1029.6
20230129075205 1 310 0.0 2.0 0.00 0.00 0.00 83 1029.4
20230129074706 1 310 5.0 9.0 0.00 0.00 0.00 83 1029.3
20230129074235 1 329 0.0 10.0 0.00 0.00 0.00 83 1029.2
20230129074205 1 329 0.0 10.0 0.00 0.00 0.00 83 1029.2
20230129073708 1 302 2.0 6.0 0.00 0.00 0.00 83 1029.2
20230129072705 1 307 0.0 8.0 0.00 0.00 0.00 82 1029.2
20230129072205 1 298 0.0 0.0 0.00 0.00 0.00 82 1029.2
20230129071712 1 319 5.0 6.0 0.00 0.00 0.00 82 1029.2
20230129070705 1 316 0.0 0.0 0.00 0.00 0.00 82 1028.9
20230129070205 1 334 4.0 9.0 0.00 0.00 0.00 81 1028.8
20230129065705 1 322 0.0 6.0 0.00 0.00 0.00 81 1028.7
20230129065205 1 323 0.0 9.0 0.00 0.00 0.00 81 1028.6
20230129064705 1 289 0.0 0.0 0.00 0.00 0.00 81 1028.6
20230129064205 1 322 0.0 0.0 0.00 0.00 0.00 81 1028.6
20230129063705 1 330 0.0 8.0 0.00 0.00 0.00 80 1028.6
20230129063205 1 329 3.0 12.0 0.00 0.00 0.00 81 1028.5
20230129062705 1 8 0.0 9.0 0.00 0.00 0.00 81 1028.4
20230129062205 1 11 0.0 7.0 0.00 0.00 0.00 81 1028.5
20230129061205 2 347 0.0 0.0 0.00 0.00 0.00 82 1028.4
20230129060705 2 331 0.0 7.0 0.00 0.00 0.00 83 1028.5
20230129060207 2 327 0.0 5.0 0.00 0.00 0.00 83 1028.4
20230129055706 2 324 0.0 8.0 0.00 0.00 0.00 83 1028.4
20230129055205 2 331 0.0 7.0 0.00 0.00 0.00 82 1028.4
20230129054705 2 347 0.0 0.0 0.00 0.00 0.00 82 1028.4
20230129053705 2 345 0.0 0.0 0.00 0.00 0.00 83 1028.5
20230129053207 2 345 0.0 0.0 0.00 0.00 0.00 82 1028.5
20230129052705 2 324 0.0 0.0 0.00 0.00 0.00 82 1028.4
20230129052205 3 324 0.0 0.0 0.00 0.00 0.00 82 1028.4
20230129051705 2 324 0.0 0.0 0.00 0.00 0.00 82 1028.3
20230129051205 3 324 0.0 7.0 0.00 0.00 0.00 82 1028.3
20230129050705 2 292 0.0 0.0 0.00 0.00 0.00 82 1028.4
20230129050237 3 292 0.0 0.0 0.00 0.00 0.00 81 1028.3
20230129050205 3 292 0.0 0.0 0.00 0.00 0.00 81 1028.3
20230129045205 3 303 0.0 8.0 0.00 0.00 0.00 81 1028.4
20230129044705 3 322 0.0 0.0 0.00 0.00 0.00 81 1028.4
20230129044248 3 357 0.0 6.0 0.00 0.00 0.00 81 1028.4
20230129044204 3 357 0.0 6.0 0.00 0.00 0.00 81 1028.4
20230129043706 3 348 4.0 6.0 0.00 0.00 0.00 81 1028.4
20230129043205 3 334 0.0 3.0 0.00 0.00 0.00 82 1028.4
20230129042705 3 334 0.0 0.0 0.00 0.00 0.00 82 1028.3
20230129042205 3 334 0.0 8.0 0.00 0.00 0.00 82 1028.3
20230129041205 3 334 0.0 0.0 0.00 0.00 0.00 82 1028.5
20230129040705 3 334 0.0 0.0 0.00 0.00 0.00 82 1028.5
20230129040205 3 334 0.0 0.0 0.00 0.00 0.00 82 1028.4
20230129035705 3 334 0.0 0.0 0.00 0.00 0.00 82 1028.5
20230129035204 2 329 0.0 7.0 0.00 0.00 0.00 82 1028.5
20230129034704 3 329 0.0 0.0 0.00 0.00 0.00 83 1028.4
20230129034204 3 299 0.0 0.0 0.00 0.00 0.00 83 1028.2
20230129033704 2 299 0.0 4.0 0.00 0.00 0.00 82 1028.2
20230129033205 2 323 0.0 0.0 0.00 0.00 0.00 83 1028.2
20230129032706 3 323 0.0 5.0 0.00 0.00 0.00 82 1028.1
20230129032204 2 296 5.0 5.0 0.00 0.00 0.00 83 1028.2
20230129031704 2 357 0.0 0.0 0.00 0.00 0.00 83 1028.2
20230129030706 2 357 0.0 0.0 0.00 0.00 0.00 84 1027.9
20230129030205 3 357 0.0 0.0 0.00 0.00 0.00 84 1027.9
20230129025739 3 357 0.0 0.0 0.00 0.00 0.00 84 1027.9
20230129025704 3 357 0.0 0.0 0.00 0.00 0.00 84 1027.9
20230129025204 3 357 0.0 0.0 0.00 0.00 0.00 84 1027.7
20230129024704 3 357 0.0 0.0 0.00 0.00 0.00 84 1027.7
20230129024301 3 357 0.0 0.0 0.00 0.00 0.00 84 1027.7
20230129024204 3 357 0.0 0.0 0.00 0.00 0.00 84 1027.7
20230129023704 3 357 0.0 0.0 0.00 0.00 0.00 84 1027.8
20230129023205 3 289 0.0 0.0 0.00 0.00 0.00 84 1027.8
20230129022704 3 289 0.0 0.0 0.00 0.00 0.00 84 1027.7
20230129021704 3 289 0.0 0.0 0.00 0.00 0.00 84 1027.7
20230129021204 3 289 0.0 0.0 0.00 0.00 0.00 84 1027.6
20230129020704 3 289 0.0 0.0 0.00 0.00 0.00 84 1027.4
20230129020207 3 329 0.0 0.0 0.00 0.00 0.00 84 1027.4
20230129015706 3 329 0.0 0.0 0.00 0.00 0.00 83 1027.3
20230129015205 3 330 0.0 7.0 0.00 0.00 0.00 83 1027.3
20230129014704 3 327 0.0 0.0 0.00 0.00 0.00 83 1027.1
20230129014204 3 327 0.0 0.0 0.00 0.00 0.00 83 1027.1
20230129013934 3 327 0.0 0.0 0.00 0.00 0.00 83 1026.9
20230129013704 3 327 0.0 0.0 0.00 0.00 0.00 83 1026.9
20230129013205 3 327 0.0 8.0 0.00 0.00 0.00 83 1026.9
20230129012704 3 334 5.0 8.0 0.00 0.00 0.00 83 1026.8
20230129012204 3 305 0.0 0.0 0.00 0.00 0.00 83 1026.8
20230129011204 3 305 0.0 0.0 0.00 0.00 0.00 82 1026.5
20230129010704 4 305 0.0 0.0 0.00 0.00 0.00 83 1026.5
20230129010205 4 322 0.0 0.0 0.00 0.00 0.00 82 1026.4
20230129005741 3 322 0.0 7.0 0.00 0.00 0.00 82 1026.3
20230129005704 3 322 0.0 7.0 0.00 0.00 0.00 82 1026.3
20230129005204 4 326 0.0 5.0 0.00 0.00 0.00 82 1026.2
20230129004704 4 322 0.0 8.0 0.00 0.00 0.00 81 1026.3
20230129004204 4 337 0.0 0.0 0.00 0.00 0.00 81 1026.1
20230129003704 4 337 0.0 8.0 0.00 0.00 0.00 80 1026.1
20230129003253 4 323 7.0 9.0 0.00 0.00 0.00 80 1026.1
20230129003205 4 323 7.0 9.0 0.00 0.00 0.00 80 1026.1
20230129002704 4 289 0.0 6.0 0.00 0.00 0.00 80 1026.1
20230129002206 4 317 0.0 7.0 0.00 0.00 0.00 80 1026.2
20230129001705 4 333 0.0 5.0 0.00 0.00 0.00 80 1026.1
20230129001204 4 329 0.0 0.0 0.00 0.00 0.00 80 1026.1
20230129000704 5 330 0.0 0.0 0.00 0.00 0.00 81 1025.9
20230129000205 4 330 0.0 0.0 0.00 0.00 0.00 80 1025.8
20230128235704 4 330 0.0 0.0 0.00 0.00 0.00 80 1025.7
20230128235204 4 330 0.0 9.0 0.00 0.00 0.00 79 1025.7
20230128234704 4 352 0.0 4.0 0.00 0.00 0.00 80 1025.6
20230128234237 4 23 0.0 0.0 0.00 0.00 0.00 80 1025.4
20230128234204 4 23 0.0 0.0 0.00 0.00 0.00 80 1025.4
20230128233704 4 23 0.0 7.0 0.00 0.00 0.00 79 1025.3
20230128233205 4 293 0.0 0.0 0.00 0.00 0.00 80 1025.3
20230128232706 4 293 0.0 0.0 0.00 0.00 0.00 80 1025.1
20230128232204 4 345 0.0 3.0 0.00 0.00 0.00 80 1025.0
20230128231704 4 350 0.0 0.0 0.00 0.00 0.00 80 1025.0
20230128231204 4 298 0.0 0.0 0.00 0.00 0.00 80 1024.8
20230128230704 5 330 5.0 11.0 0.00 0.00 0.00 80 1024.7
20230128230205 5 5 0.0 6.0 0.00 0.00 0.00 80 1024.7
20230128225704 5 329 0.0 7.0 0.00 0.00 0.00 80 1024.6
20230128225204 5 23 0.0 7.0 0.00 0.00 0.00 81 1024.5
20230128224706 5 327 0.0 8.0 0.00 0.00 0.00 80 1024.5
20230128224205 5 9 0.0 11.0 0.00 0.00 0.00 80 1024.5
20230128223705 4 320 0.0 10.0 0.00 0.00 0.00 80 1024.4
20230128223205 5 296 2.0 13.0 0.00 0.00 0.00 80 1024.4
20230128222704 5 344 10.0 10.0 0.00 0.00 0.00 81 1024.5
20230128222239 5 345 0.0 0.0 0.00 0.00 0.00 81 1024.5
20230128222204 5 345 0.0 0.0 0.00 0.00 0.00 81 1024.5
20230128221704 5 345 0.0 0.0 0.00 0.00 0.00 81 1024.7
20230128221204 4 345 0.0 10.0 0.00 0.00 0.00 81 1024.7
20230128220704 4 336 4.0 10.0 0.00 0.00 0.00 80 1024.7
20230128220241 5 352 4.0 9.0 0.00 0.00 0.00 81 1024.6
20230128220205 5 352 4.0 9.0 0.00 0.00 0.00 81 1024.6
20230128215704 5 293 7.0 7.0 0.00 0.00 0.00 81 1024.7
20230128215204 5 9 0.0 7.0 0.00 0.00 0.00 81 1024.7
20230128214800 5 313 6.0 8.0 0.00 0.00 0.00 81 1024.6
20230128214704 5 313 6.0 8.0 0.00 0.00 0.00 81 1024.6
20230128214204 6 316 0.0 0.0 0.00 0.00 0.00 81 1024.6
20230128213704 6 331 0.0 0.0 0.00 0.00 0.00 80 1024.6
20230128213205 6 345 0.0 0.0 0.00 0.00 0.00 80 1024.7
20230128212204 5 329 0.0 8.0 0.00 0.00 0.00 81 1024.5
20230128211704 5 5 0.0 7.0 0.00 0.00 0.00 81 1024.5
20230128211204 5 338 5.0 10.0 0.00 0.00 0.00 80 1024.4
20230128210704 5 2 5.0 10.0 0.00 0.00 0.00 80 1024.5
20230128210205 6 320 6.0 10.0 0.00 0.00 0.00 80 1024.5
20230128205706 6 316 0.0 0.0 0.00 0.00 0.00 80 1024.4
20230128205205 6 316 0.0 0.0 0.00 0.00 0.00 80 1024.3
20230128204704 6 316 0.0 3.0 0.00 0.00 0.00 80 1024.2
20230128204204 6 333 0.0 0.0 0.00 0.00 0.00 81 1024.1
20230128203704 7 351 0.0 0.0 0.00 0.00 0.00 80 1024.0
20230128203205 6 338 0.0 0.0 0.00 0.00 0.00 79 1024.0
20230128202706 5 32 0.0 6.0 0.00 0.00 0.00 80 1024.0
20230128202204 5 26 0.0 8.0 0.00 0.00 0.00 80 1024.0
20230128201705 5 14 0.0 7.0 0.00 0.00 0.00 80 1024.1
20230128201241 6 8 0.0 0.0 0.00 0.00 0.00 81 1024.1
20230128201204 6 8 0.0 0.0 0.00 0.00 0.00 81 1024.1
20230128200704 5 8 0.0 7.0 0.00 0.00 0.00 81 1024.1
20230128200205 5 303 0.0 6.0 0.00 0.00 0.00 81 1024.2
20230128195705 5 36 0.0 14.0 0.00 0.00 0.00 81 1024.3
20230128195204 5 317 0.0 5.0 0.00 0.00 0.00 81 1024.3
20230128194705 5 14 3.0 4.0 0.00 0.00 0.00 82 1024.4
20230128194206 5 344 0.0 0.0 0.00 0.00 0.00 82 1024.5
20230128193705 5 344 0.0 2.0 0.00 0.00 0.00 82 1024.6
20230128193205 5 334 0.0 0.0 0.00 0.00 0.00 82 1024.5
20230128192705 4 334 0.0 0.0 0.00 0.00 0.00 82 1024.6
20230128192205 5 334 0.0 0.0 0.00 0.00 0.00 82 1024.6
20230128191704 5 23 0.0 6.0 0.00 0.00 0.00 82 1024.7
20230128191204 5 21 0.0 5.0 0.00 0.00 0.00 82 1024.7
20230128190704 5 19 0.0 0.0 0.00 0.00 0.00 82 1024.8
20230128190205 5 320 0.0 0.0 0.00 0.00 0.00 83 1024.9
20230128185704 5 320 0.0 0.0 0.00 0.00 0.00 83 1025.0
20230128185204 5 320 0.0 0.0 0.00 0.00 0.00 84 1025.1
20230128184704 4 320 0.0 4.0 0.00 0.00 0.00 84 1025.1
20230128184204 4 37 0.0 0.0 0.00 0.00 0.00 84 1025.2
20230128183704 604 42 0.0 9.0 0.00 0.00 0.00 83 10.2
20230128183205 4 355 0.0 0.0 0.00 0.00 0.00 84 1025.4
20230128182704 4 333 5.0 7.0 0.00 0.00 0.00 84 1025.6
20230128182204 4 323 0.0 0.0 0.00 0.00 0.00 84 1025.6
20230128181705 4 323 0.0 0.0 0.00 0.00 0.00 85 1025.6
20230128181204 4 336 0.0 6.0 0.00 0.00 0.00 85 1025.8
20230128180704 3 4 0.0 0.0 0.00 0.00 0.00 85 1025.9
20230128180252 3 4 0.0 0.0 0.00 0.00 0.00
20230128180205 3 4 0.0 0.0 0.00 0.00 0.00 86 1025.8
20230128175705 3 1 0.0 0.0 0.00 0.00 0.00 86 1025.9
20230128175205 3 1 0.0 0.0 0.00 0.00 0.00 86 1025.8
20230128174205 3 18 0.0 2.0 0.00 0.00 0.00 87 1026.0
20230128173705 3 358 0.0 0.0 0.00 0.00 0.00 86 1026.0
20230128173206 3 358 0.0 0.0 0.00 0.00 0.00 86 1026.0
20230128172706 3 18 0.0 3.0 0.00 0.00 0.00 86 1026.0
20230128171204 3 310 0.0 0.0 0.00 0.00 0.00 87 1026.2
20230128170236 3 4 0.0 6.0 0.00 0.00 0.00 87 1026.1
20230128170205 3 4 0.0 6.0 0.00 0.00 0.00 87 1026.1
20230128165814 3 305 0.0 0.0 0.00 0.00 0.00 87 1026.2
20230128165741 3 305 0.0 0.0 0.00 0.00 0.00 87 1026.2
20230128165704 3 305 0.0 0.0 0.00 0.00 0.00 87 1026.2
20230128165204 3 7 0.0 0.0 0.00 0.00 0.00 87 1026.0
20230128164704 3 18 0.0 0.0 0.00 0.00 0.00 87 1025.9
20230128164205 2 18 0.0 0.0 0.00 0.00 0.00 88 1025.9
20230128163704 2 18 0.0 0.0 0.00 0.00 0.00 87 1025.9